Location: Harville
(48.0881°N, 1.4639°E)
Time: 15:10:50
(UTC+00:00)

Daily predictions for brighter satellites

Satellite Brightness Start Highest point End
(mag) Time Altitude Azimuth Time Altitude Azimuth Time Altitude Azimuth
USA 229 DEB 3.9 16:32:16 10° SW 16:38:52 77° NW 16:45:49 10° NE
USA 229 3.9 16:32:21 10° SW 16:38:57 77° NW 16:45:55 10° NE
NOSS 3-1 (C) 3.5 16:34:52 10° SW 16:40:27 78° NW 16:47:01 10° NE
SeaSat 1 3.7 16:36:55 10° E 16:40:37 22° NE 16:44:18 10° N
Meteor 1-28 Rocket 4.4 16:37:55 10° N 16:41:28 44° WNW 16:45:01 10° SW
Okean-O 3.6 16:38:15 10° ESE 16:41:56 26° ENE 16:45:39 10° N
Cosmos 2221 3.3 16:38:52 10° SSW 16:43:07 55° WNW 16:47:27 10° N
NOSS 3-1 (A) 3.4 16:38:33 10° SSW 16:44:07 78° SE 16:50:36 10° NE
NOSS 2-3 (D) 4.0 16:40:59 10° SSW 16:45:12 51° ESE 16:50:08 10° NE
Cosmos 923 Rocket 4.1 16:40:20 10° S 16:45:25 57° ESE 16:50:31 10° NNE
Cosmos 1624 Rocket 4.4 16:42:05 10° NNW 16:47:10 42° ENE 16:52:12 10° SE
Cosmos 1666 Rocket 3.7 16:44:31 10° N 16:48:48 53° ENE 16:53:02 10° SSE
Cosmos 2056 Rocket 3.9 16:44:00 10° N 16:48:52 41° ENE 16:53:45 10° SE
Cosmos 1980 Rocket 2.8 16:47:33 10° S 16:52:43 38° ESE 16:57:56 10° NE
Cosmos 1356 Rocket 3.5 16:50:21 10° S 16:54:33 87° ESE 16:58:53 10° NNE
COSMO-SKYMED 1 4.2 16:53:07 10° NE 16:55:43 15° E 16:58:19 10° SE
SL-16 R/B 3.9 16:54:09 10° ESE 16:56:35 13° E 16:59:00 10° ENE
Okean O Rocket 2.7 16:52:43 10° S 16:56:58 50° W 17:01:14 10° NNW
CENTAUR R/B 4.0 16:52:17 10° NW 16:58:30 28° NNE 17:05:05 11° ENE
Cosmos 2297 Rocket 3.9 16:54:01 10° NW 16:59:12 38° WSW 17:04:23 10° S
Cosmos 2227 Rocket 3.8 16:55:08 10° NW 17:00:24 41° WSW 17:05:39 10° S
Cosmos 2322 Rocket 3.9 16:59:42 10° ESE 17:01:42 12° E 17:03:15 11° ENE
COBE Rocket 4.4 16:57:26 10° NNE 17:01:49 36° E 17:06:06 10° SSE
CZ-4 R/B 2.7 17:01:29 10° ESE 17:04:26 20° ENE 17:07:22 10° NNE
Cosmos 1862 3.2 17:02:08 10° N 17:06:08 72° E 17:10:07 10° SSE
YAOGAN 6 3.7 17:07:46 10° ESE 17:10:26 21° ENE 17:13:08 10° NNE
PSLV R/B 4.0 17:06:26 10° NNE 17:10:41 89° W 17:14:52 10° SSW
Cosmos 2263 Rocket 2.6 17:05:48 10° NNW 17:11:01 38° NE 17:16:11 10° ESE
Cosmos 1933 4.5 17:09:00 10° SE 17:12:15 24° E 17:15:31 10° NE
Envisat 3.3 17:07:39 10° SE 17:12:27 44° ENE 17:17:15 10° N
Meteor 2-11 Rocket 4.4 17:08:03 10° N 17:14:09 64° ENE 17:20:14 10° SSE
Cosmos 158 Rocket 4.3 17:09:19 10° S 17:14:17 44° ESE 17:19:11 10° NE
IRS-1C Rocket 4.3 17:11:04 10° SSE 17:16:21 81° WSW 17:21:40 10° NNW
BREEZE-M DEB (TANK) 3.8 17:11:30 10° SW 17:17:40 35° SSE 17:20:08 14° ESE
Cosmos 1464 Rocket 4.0 17:12:16 10° N 17:18:28 89° W 17:24:36 10° S
YAOGAN 1 3.6 17:15:58 10° ESE 17:19:24 24° ENE 17:22:52 10° N
Lacrosse 4 Rocket 2.4 17:16:28 10° SW 17:20:21 43° NW 17:24:15 10° NNE
Cosmos 1470 Rocket 3.7 17:16:01 10° N 17:20:25 53° ENE 17:24:47 10° SSE
H-2A R/B 2.7 17:17:39 10° SSE 17:21:29 88° ENE 17:25:16 10° NNW
NOSS 2-3 (C) 3.8 17:18:26 10° SW 17:22:51 81° NW 17:27:46 12° NE
ATLAS 3B R/B 3.9 17:18:21 10° NW 17:23:38 24° NNE 17:27:20 16° ENE
Cosmos 1420 Rocket 4.3 17:21:58 10° NNW 17:26:53 41° ENE 17:31:46 10° SE
Cosmos 1697 Rocket 3.0 17:23:22 10° SW 17:29:00 70° WNW 17:34:41 10° NNE
ISS -1.5 17:28:07 10° SSE 17:29:29 12° SE 17:29:54 12° SE
USA 238 DEB 4.2 17:23:50 10° NW 17:30:32 42° NE 17:36:05 16° E
USA 238 4.3 17:23:56 10° NW 17:30:38 42° NNE 17:36:08 16° E
Cosmos 2369 4.1 17:25:33 10° SW 17:31:11 64° WNW 17:36:53 10° NNE
Cosmos 2346 Rocket 4.5 17:25:09 10° S 17:31:14 60° E 17:37:17 10° NNE
APEX 2.5 17:29:19 10° SSW 17:32:32 90° WSW 17:34:17 21° NNE
NOSS 3-2 (A) 4.4 17:25:52 10° NW 17:32:38 42° NNE 17:38:34 16° E
Cosmos 1452 Rocket 3.9 17:32:08 10° N 17:37:09 40° ENE 17:42:07 10° SE
Cosmos 1371 Rocket 4.3 17:34:46 10° NNW 17:39:57 69° WSW 17:45:05 10° S
Cosmos 1869 Rocket 4.5 17:37:48 10° NNE 17:41:24 26° ENE 17:41:24 26° ENE
SMAP 4.0 17:38:46 10° S 17:43:18 52° W 17:47:53 10° NNW
SKYMED 2 3.9 17:40:40 13° NNE 17:44:16 44° E 17:48:24 10° S
Timation 1 Rocket 4.3 17:38:21 10° NNW 17:44:18 62° ENE 17:50:13 10° SE
Cosmos 1400 Rocket 3.7 17:41:16 10° SSE 17:44:48 28° E 17:44:48 28° E
GENESIS II 4.3 17:42:08 10° SSW 17:46:08 62° SE 17:48:02 29° NE
Cosmos 2278 4.1 17:42:19 10° SW 17:47:57 64° WNW 17:53:40 10° NNE
Cosmos 2360 4.4 17:45:07 10° SW 17:50:49 72° WNW 17:56:28 10° NNE
Cosmos 1844 Rocket 3.8 17:47:20 10° N 17:51:41 22° NE 17:51:58 22° NE
Ariane Rocket 3.8 17:55:49 28° ENE 17:55:49 28° ENE 17:59:53 10° N
FengYun 1-2 T 4.1 17:51:58 10° SSE 17:57:28 80° ENE 18:02:59 10° NNW
Cosmos 1680 Rocket 4.4 17:54:51 10° SW 17:59:53 48° WNW 18:05:00 10° NNE
ERBS 4.1 17:58:24 10° WNW 18:01:00 20° NNW 18:01:35 20° N
Cosmos 1151 Rocket 3.6 17:59:29 10° SSW 18:03:48 58° WNW 18:08:09 10° N
Cosmos 2278 Rocket 4.2 18:02:13 10° N 18:03:29 11° NNE 18:03:29 11° NNE
CSL-04 Debris 4.1 18:02:15 10° SSE 18:07:42 70° ENE 18:13:10 10° N
USA 215 3.8 18:07:26 29° ENE 18:10:18 44° N 18:16:25 10° WNW
NOAA 11 4.2 18:05:46 10° SE 18:11:01 53° ENE 18:16:19 10° N
BREEZE-M R/B 4.1 18:08:35 10° SSW 18:12:42 26° SSE 18:12:42 26° SSE
CSL-04 Rocket 3.5 18:10:30 10° SSE 18:15:49 79° ENE 18:21:08 10° NNW
Cosmos 1606 2.6 18:13:01 10° S 18:16:46 82° W 18:18:13 36° N
SeaSat 1 2.5 18:12:42 10° SSE 18:17:38 81° WSW 18:22:37 10° NNW
Okean-O 4.1 18:14:09 10° SSW 18:18:17 38° W 18:22:25 10° NNW
GEOS 3 Rocket 3.6 18:17:44 40° ENE 18:19:35 69° SE 18:24:51 10° SSW
NOSS 3-2 (C) 4.2 18:13:39 10° NW 18:20:41 49° NE 18:23:25 36° E
COSMOS 2455 3.2 18:18:46 10° S 18:24:22 42° ESE 18:24:34 42° ESE
SWAS 4.3 18:21:55 10° NNW 18:26:11 72° NE 18:26:11 72° NE
BREEZE-M DEB (TANK) 2.2 18:22:28 10° W 18:27:54 76° NW 18:27:54 76° NW
USA 116 4.2 18:26:49 26° NNE 18:29:40 83° ESE 18:34:57 10° SSW
Cosmos 2360 Rocket 3.7 18:25:59 10° SSE 18:28:08 21° SSE 18:28:08 21° SSE
COSMO-SKYMED 1 3.0 18:29:12 18° N 18:32:17 62° WNW 18:36:34 10° SSW
Meteor 1-26 Rocket 4.2 18:27:24 10° S 18:33:23 88° E 18:39:19 10° NNE
Cosmos 1634 Rocket 4.1 18:28:20 10° NNW 18:34:32 76° W 18:40:40 10° S
Cosmos 2228 Rocket 3.5 18:31:41 10° SSW 18:36:08 62° WNW 18:39:23 18° N
Cosmos 1980 Rocket 3.3 18:31:19 10° WSW 18:36:41 41° NW 18:40:55 16° NNE
CZ-4 R/B 2.5 18:35:16 10° S 18:39:12 44° W 18:43:04 10° NNW
SL-16 R/B 2.0 18:34:04 10° SSW 18:39:44 79° ESE 18:40:54 57° NE
YAOGAN 6 4.5 18:40:44 10° SSW 18:43:48 29° W 18:46:55 10° NNW
Cosmos 2322 Rocket 2.0 18:39:08 10° SSW 18:44:43 75° ESE 18:45:07 71° ENE
H-2A R/B 4.3 18:52:37 13° N 18:52:37 13° N 18:53:09 10° N
Cosmos 2279 Rocket 3.9 18:42:45 10° N 18:49:02 88° E 18:55:17 10° S
CENTAUR R/B 3.2 18:43:18 10° NW 18:50:56 55° NE 18:52:17 51° ENE
Cosmos 44 3.9 18:48:46 10° NW 18:51:45 43° NW 18:51:45 43° NW
Cosmos 2263 Rocket 3.4 18:49:48 10° NW 18:54:57 40° WSW 19:00:05 10° S
YAOGAN 1 3.8 18:51:12 10° S 18:55:17 41° W 18:59:25 10° NNW
Gblst 52 Del rocket 4.3 18:48:42 10° WNW 18:55:26 77° SSW 18:56:17 66° SSE
SL-8 R/B 4.2 18:57:51 10° WSW 19:01:42 57° WSW 19:01:42 57° WSW
ISS -0.7 19:02:21 10° SW 19:02:49 13° SW 19:02:49 13° SW
ATLAS 3B R/B 3.1 19:09:13 10° NW 19:14:36 49° N 19:14:36 49° N
ATLAS 2AS CENTAUR R/B 3.5 19:09:23 10° SSW 19:14:57 43° SSE 19:14:57 43° SSE
USA 238 DEB 4.0 19:14:50 10° NW 19:21:57 66° SW 19:23:35 53° S
USA 238 4.0 19:14:56 10° NW 19:22:03 67° SW 19:23:38 54° S
NOSS 3-2 (A) 4.1 19:16:40 10° NW 19:24:08 73° SW 19:26:01 55° S
Ariane Rocket 4.4 19:36:03 33° NW 19:36:03 33° NW 19:39:15 10° NNW
Cosmos 1844 Rocket 4.0 19:30:39 10° NNW 19:33:38 33° NNW 19:33:38 33° NNW
USA 215 3.9 19:54:47 49° NW 19:54:47 49° NW 19:59:25 10° NW
COSMOS 2455 4.5 20:04:35 10° WSW 20:07:46 29° W 20:07:46 29° W
SL-16 R/B 4.4 20:20:02 10° W 20:22:49 20° WNW 20:22:49 20° WNW
CENTAUR R/B 4.1 20:34:07 10° NW 20:39:29 42° WNW 20:39:29 42° WNW
